PEGASUS R/B

Satellite information

Favourite Embed

Satellite Type and Status

ROCKET BODYIN ORBIT

Key statistics

Satellite PEGASUS R/B at a glance.

Uptime

11897

Days in orbit

Revolutions

≈ 14.6

Per day

Orbit

LEO

Low Earth Orbit

Inclination

25.0

Latest

Satellite identification and parameters

Extended collection of information and parameters for PEGASUS R/B.

Object identification

Identified? True

Debris? False

Object name: PEGASUS R/B

International designator: 1993-009C

Object number (NORAD): 22491

Object ID (CCSDS): 22491

Country: UNITED STATES OF AMERICA (US)

Current information (Y/N): Y

RCS size: MEDIUM

Orbital parameters

Period: 98.811 minutes

Inclination: 24.9777 deg

SMA: 7079.965 km

Apoapsis: 733.219 km

Periapsis: 670.442 km

RAAN: 88.7352 deg

Eccentricy: 0.0044334

Argument of periapsis: 264.042 deg

Mean anomaly: 95.5037 deg

Mean motion: 14.57323822 rev/day

Mean motion (dot): 0.00001612 rev/day2

B* drag term: 0.00030132733 1/REarth

Two-line elements (TLE)

Creation date: Sept. 4, 2025, 10:13 a.m.

Reference frame: TEME

Reference center: EARTH

Epoch: Sept. 4, 2025, 5:30 a.m. UTC

TLE line 0: 0 PEGASUS R/B

TLE line 1: 1 22491U 93009C 25247.22970337 .00001612 00000-0 30133-3 0 9995

TLE line 2: 2 22491 24.9777 88.7352 0044334 264.0420 95.5037 14.57323822727861

Live tracking on map

Real-time ground track for satellite PEGASUS R/B.

In-orbit conjunctions

A list of the most updated potential collisions computed for object PEGASUS R/B.

Target Orbit TCA Probability of collision Miss distance Type
CZ-6A DEB SSO 2025-08-14 15:58:35 0.0004946642 934.0 (m) DEBRIS
CZ-2C DEB SSO 2024-07-08 05:12:22 0.000307154 538.0 (m) DEBRIS

Associated space launch

PEGASUS R/B was lifted into orbit during the mission ‘Pegasus | Satélite de Coleta de Dados-1 (SCD-1)’, on board a Pegasus space rocket.

The launch took place on Feb. 9, 1993, 2:30 p.m. from Cape Canaveral.

For more information about the launch, click the button.

Launch to space Pegasus | Satélite de Coleta de Dados-1 (SCD-1)
Pegasus | Satélite de Coleta de Dados-1 (SCD-1)

Agency: N/A

Status: Launch Successful

Launch date: Feb. 9, 1993, 2:30 p.m. UTC

Rocket: Pegasus

Launch pad: Cape Canaveral

Location: Air launch to orbit

...

Latest news about this satellite

There are no fresh news available about this satellite. Check back as we update our databases every day.


Newsletter sign-up

Weekly statistics, charts and insights to help you stay on top of the space industry.